,,Stat6,,Stat2,,Stat8,,Stat9,,Stat10,,Wind1,,Wind1,
time,status,PA1M_AVG,status,PR1M_SUM,status,RH1M_AVG,status,SR1M_AVG,status,TA1M_AVG,status,W1dAve1m,status,W1sAve1m,
2008-05-29, 00:00:00,VALID,916.325,VALID,0,VALID,100,VALID,-0.0339617,VALID,19.9684,VALID,244,VALID,0,
2008-05-29, 00:01:00,VALID,916.303,VALID,0,VALID,100,VALID,-0.0169808,VALID,19.9719,VALID,244,VALID,0,
2008-05-29, 00:02:00,VALID,916.286,VALID,0,VALID,100,VALID,-0.0339617,VALID,19.9851,VALID,249,VALID,0,
2008-05-29, 00:03:00,VALID,916.282,VALID,0,VALID,100,VALID,-0.0169808,VALID,19.9848,VALID,255,VALID,0,
2008-05-29, 00:04:00,VALID,916.261,VALID,0,VALID,100,VALID,0,VALID,19.9913,VALID,255,VALID,0,
2008-05-29, 00:05:00,VALID,916.27,VALID,0,VALID,100,VALID,-0.0169808,VALID,20.0013,VALID,255,VALID,0,
2008-05-29, 00:06:00,VALID,916.244,VALID,0,VALID,100,VALID,-0.0169808,VALID,20.014,VALID,255,VALID,0,
2008-05-29, 00:07:00,VALID,916.235,VALID,0,VALID,100,VALID,0.0169808,VALID,20.0238,VALID,255,VALID,0,
2008-05-29, 00:08:00,VALID,916.22,VALID,0,VALID,100,VALID,-0.0509425,VALID,20.0175,VALID,255,VALID,0,
2008-05-29, 00:09:00,VALID,916.222,VALID,0,VALID,100,VALID,-0.0169808,VALID,20.0205,VALID,247,VALID,0,
2008-05-29, 00:10:00,VALID,916.241,VALID,0,VALID,100,VALID,0,VALID,20.0111,VALID,246,VALID,0,
2008-05-29, 00:11:00,VALID,916.223,VALID,0,VALID,100,VALID,-0.0339617,VALID,20.0016,VALID,246,VALID,0,
2008-05-29, 00:12:00,VALID,916.214,VALID,0,VALID,100,VALID,-0.0169808,VALID,20.0081,VALID,246,VALID,0,
2008-05-29, 00:13:00,VALID,916.207,VALID,0,VALID,100,VALID,-0.0169808,VALID,19.9851,VALID,235,VALID,0,
2008-05-29, 00:14:00,VALID,916.206,VALID,0,VALID,100,VALID,-0.0169808,VALID,19.9564,VALID,214,VALID,0,
2008-05-29, 00:15:00,VALID,916.166,VALID,0,VALID,100,VALID,-0.0169808,VALID,19.9234,VALID,214,VALID,0,
2008-05-29, 00:16:00,VALID,916.147,VALID,0,VALID,100,VALID,-0.0169808,VALID,19.917,VALID,214,VALID,0,
2008-05-29, 00:17:00,VALID,916.126,VALID,0,VALID,100,VALID,-0.0339617,VALID,19.9239,VALID,214,VALID,0,
2008-05-29, 00:18:00,VALID,916.106,VALID,0,VALID,100,VALID,-0.0169808,VALID,19.914,VALID,204,VALID,0,
2008-05-29, 00:19:00,VALID,916.096,VALID,0,VALID,100,VALID,-0.0169808,VALID,19.8882,VALID,115,VALID,0,
2008-05-29, 00:20:00,VALID,916.092,VALID,0,VALID,100,VALID,0,VALID,19.7804,VALID,98,VALID,0.874645,
2008-05-29, 00:21:00,VALID,916.067,VALID,0,VALID,100,VALID,-0.0169808,VALID,19.7385,VALID,90,VALID,0.810594,
2008-05-29, 00:22:00,VALID,916.055,VALID,0,VALID,100,VALID,-0.0169808,VALID,19.6961,VALID,90,VALID,0.843205,
2008-05-29, 00:23:00,VALID,916.044,VALID,0,VALID,100,VALID,-0.0849042,VALID,19.6783,VALID,84,VALID,1.18043,
2008-05-29, 00:24:00,VALID,916.043,VALID,0,VALID,100,VALID,-0.152827,VALID,19.6526,VALID,104,VALID,1.39602,
2008-05-29, 00:25:00,VALID,916.029,VALID,0,VALID,100,VALID,-0.118866,VALID,19.6391,VALID,124,VALID,0.557884,
2008-05-29, 00:26:00,VALID,916.05,VALID,0,VALID,100,VALID,-0.135847,VALID,19.6262,VALID,88,VALID,0.587984,
2008-05-29, 00:27:00,VALID,916.076,VALID,0,VALID,100,VALID,-0.118866,VALID,19.6099,VALID,67,VALID,0.900586,
2008-05-29, 00:28:00,VALID,916.08,VALID,0,VALID,100,VALID,-0.135847,VALID,19.6102,VALID,59,VALID,0.719494,
2008-05-29, 00:29:00,VALID,916.066,VALID,0,VALID,100,VALID,-0.118866,VALID,19.6172,VALID,42,VALID,0.589063,
2008-05-29, 00:30:00,VALID,916.061,VALID,0,VALID,100,VALID,-0.118866,VALID,19.6099,VALID,31,VALID,0.540661,
2008-05-29, 00:31:00,VALID,916.058,VALID,0,VALID,100,VALID,-0.135847,VALID,19.6197,VALID,34,VALID,0.441964,
2008-05-29, 00:32:00,VALID,916.052,VALID,0,VALID,100,VALID,-0.118866,VALID,19.6072,VALID,49,VALID,0.14596,
2008-05-29, 00:33:00,VALID,916.043,VALID,0,VALID,100,VALID,-0.118866,VALID,19.6037,VALID,49,VALID,0,
2008-05-29, 00:34:00,VALID,916.049,VALID,0,VALID,100,VALID,-0.118866,VALID,19.6164,VALID,49,VALID,0,
2008-05-29, 00:35:00,VALID,916.043,VALID,0,VALID,100,VALID,-0.118866,VALID,19.6459,VALID,49,VALID,0,
2008-05-29, 00:36:00,VALID,916.055,VALID,0,VALID,100,VALID,-0.118866,VALID,19.6716,VALID,48,VALID,0,
2008-05-29, 00:37:00,VALID,916.066,VALID,0,VALID,100,VALID,-0.118866,VALID,19.6978,VALID,44,VALID,0,
2008-05-29, 00:38:00,VALID,916.079,VALID,0,VALID,100,VALID,-0.0339617,VALID,19.6903,VALID,44,VALID,0,
2008-05-29, 00:39:00,VALID,916.086,VALID,0,VALID,100,VALID,0,VALID,19.706,VALID,44,VALID,0,
2008-05-29, 00:40:00,VALID,916.087,VALID,0,VALID,100,VALID,0.0169808,VALID,19.6991,VALID,21,VALID,0,
2008-05-29, 00:41:00,VALID,916.092,VALID,0,VALID,100,VALID,0,VALID,19.6863,VALID,344,VALID,0,
2008-05-29, 00:42:00,VALID,916.111,VALID,0,VALID,100,VALID,-0.0339617,VALID,19.6768,VALID,290,VALID,0,
2008-05-29, 00:43:00,VALID,916.131,VALID,0,VALID,100,VALID,-0.0339617,VALID,19.6706,VALID,262,VALID,0,
2008-05-29, 00:44:00,VALID,916.142,VALID,0,VALID,100,VALID,0,VALID,19.6639,VALID,185,VALID,0.239397,
2008-05-29, 00:45:00,VALID,916.133,VALID,0,VALID,100,VALID,-0.0169808,VALID,19.6506,VALID,184,VALID,1.00472,
2008-05-29, 00:46:00,VALID,916.16,VALID,0,VALID,100,VALID,0,VALID,19.6441,VALID,190,VALID,1.25418,
2008-05-29, 00:47:00,VALID,916.154,VALID,0,VALID,100,VALID,0,VALID,19.6377,VALID,194,VALID,0.882631,
2008-05-29, 00:48:00,VALID,916.134,VALID,0,VALID,100,VALID,0,VALID,19.6377,VALID,178,VALID,0.442827,
2008-05-29, 00:49:00,VALID,916.118,VALID,0,VALID,100,VALID,0,VALID,19.6377,VALID,174,VALID,0.937872,
2008-05-29, 00:50:00,VALID,916.068,VALID,0,VALID,100,VALID,0.0169808,VALID,19.6441,VALID,186,VALID,0.566134,
2008-05-29, 00:51:00,VALID,916.008,VALID,0,VALID,100,VALID,-0.0169808,VALID,19.6539,VALID,179,VALID,0.770389,
2008-05-29, 00:52:00,VALID,915.962,VALID,0,VALID,100,VALID,-0.0169808,VALID,19.6636,VALID,162,VALID,0.834517,
2008-05-29, 00:53:00,VALID,915.919,VALID,0,VALID,100,VALID,-0.0339617,VALID,19.6768,VALID,172,VALID,0.952381,
2008-05-29, 00:54:00,VALID,915.892,VALID,0,VALID,100,VALID,-0.0169808,VALID,19.6838,VALID,162,VALID,0.63956,
2008-05-29, 00:55:00,VALID,915.885,VALID,0,VALID,100,VALID,-0.0169808,VALID,19.6996,VALID,151,VALID,0.486421,
2008-05-29, 00:56:00,VALID,915.869,VALID,0,VALID,100,VALID,0,VALID,19.703,VALID,136,VALID,0.624826,
2008-05-29, 00:57:00,VALID,915.878,VALID,0,VALID,100,VALID,-0.0169808,VALID,19.6796,VALID,115,VALID,0.68407,
2008-05-29, 00:58:00,VALID,915.863,VALID,0,VALID,100,VALID,-0.0509425,VALID,19.6704,VALID,116,VALID,0.70585,
2008-05-29, 00:59:00,VALID,915.843,VALID,0,VALID,100,VALID,0,VALID,19.6671,VALID,127,VALID,0.865734,
2008-05-29, 01:00:00,VALID,915.816,VALID,0,VALID,100,VALID,-0.0339617,VALID,19.6636,VALID,129,VALID,0.185826,
2008-05-29, 01:01:00,VALID,915.793,VALID,0,VALID,100,VALID,-0.0169808,VALID,19.6798,VALID,130,VALID,0.315705,
2008-05-29, 01:02:00,VALID,915.792,VALID,0,VALID,100,VALID,-0.0339617,VALID,19.6798,VALID,133,VALID,0.476963,
2008-05-29, 01:03:00,VALID,915.782,VALID,0,VALID,100,VALID,-0.0169808,VALID,19.6871,VALID,157,VALID,0.291667,
2008-05-29, 01:04:00,VALID,915.777,VALID,0,VALID,100,VALID,-0.0169808,VALID,19.6863,VALID,149,VALID,0,
2008-05-29, 01:05:00,VALID,915.763,VALID,0,VALID,100,VALID,-0.0169808,VALID,19.6763,VALID,160,VALID,0.0931784,
2008-05-29, 01:06:00,VALID,915.742,VALID,0,VALID,100,VALID,-0.0339617,VALID,19.6936,VALID,151,VALID,0,
2008-05-29, 01:07:00,VALID,915.716,VALID,0,VALID,100,VALID,0.0169808,VALID,19.6931,VALID,152,VALID,0,
2008-05-29, 01:08:00,VALID,915.706,VALID,0,VALID,100,VALID,-0.0679233,VALID,19.6836,VALID,152,VALID,0,
2008-05-29, 01:09:00,VALID,915.688,VALID,0,VALID,100,VALID,-0.118866,VALID,19.6651,VALID,133,VALID,0.343217,
2008-05-29, 01:10:00,VALID,915.677,VALID,0,VALID,100,VALID,-0.0849042,VALID,19.6451,VALID,142,VALID,0.582122,
2008-05-29, 01:11:00,VALID,915.666,VALID,0,VALID,100,VALID,-0.101885,VALID,19.6389,VALID,84,VALID,0.411156,
2008-05-29, 01:12:00,VALID,915.643,VALID,0,VALID,100,VALID,-0.0849042,VALID,19.6292,VALID,119,VALID,0.906977,
2008-05-29, 01:13:00,VALID,915.645,VALID,0,VALID,100,VALID,-0.0849042,VALID,19.5932,VALID,127,VALID,1.07649,
2008-05-29, 01:14:00,VALID,915.629,VALID,0,VALID,100,VALID,-0.118866,VALID,19.587,VALID,133,VALID,0.916016,
2008-05-29, 01:15:00,VALID,915.592,VALID,0,VALID,100,VALID,-0.0679233,VALID,19.577,VALID,133,VALID,0.508832,
2008-05-29, 01:16:00,VALID,915.581,VALID,0,VALID,100,VALID,-0.0849042,VALID,19.5638,VALID,127,VALID,0.971168,
2008-05-29, 01:17:00,VALID,915.57,VALID,0,VALID,100,VALID,-0.0849042,VALID,19.5476,VALID,116,VALID,0.668445,
2008-05-29, 01:18:00,VALID,915.528,VALID,0,VALID,100,VALID,-0.101885,VALID,19.5448,VALID,177,VALID,0.483774,
2008-05-29, 01:19:00,VALID,915.513,VALID,0,VALID,100,VALID,-0.0849042,VALID,19.554,VALID,159,VALID,0.595982,
2008-05-29, 01:20:00,VALID,915.49,VALID,0,VALID,100,VALID,-0.101885,VALID,19.5543,VALID,115,VALID,0.188244,
2008-05-29, 01:21:00,VALID,915.472,VALID,0,VALID,100,VALID,-0.0509425,VALID,19.5608,VALID,103,VALID,0,
2008-05-29, 01:22:00,VALID,915.462,VALID,0,VALID,100,VALID,-0.101885,VALID,19.5805,VALID,103,VALID,0,
2008-05-29, 01:23:00,VALID,915.457,VALID,0,VALID,100,VALID,-0.0169808,VALID,19.573,VALID,118,VALID,0,
2008-05-29, 01:24:00,VALID,915.455,VALID,0,VALID,100,VALID,-0.0339617,VALID,19.559,VALID,276,VALID,0,
2008-05-29, 01:25:00,VALID,915.48,VALID,0,VALID,100,VALID,0.0169808,VALID,19.5725,VALID,276,VALID,0.024891,
2008-05-29, 01:26:00,VALID,915.481,VALID,0,VALID,100,VALID,0,VALID,19.562,VALID,174,VALID,0.525195,
2008-05-29, 01:27:00,VALID,915.483,VALID,0,VALID,100,VALID,0.0169808,VALID,19.5196,VALID,86,VALID,0.461458,
2008-05-29, 01:28:00,VALID,915.476,VALID,0,VALID,100,VALID,0.0339617,VALID,19.5169,VALID,69,VALID,0.499273,
2008-05-29, 01:29:00,VALID,915.474,VALID,0,VALID,100,VALID,0.0509425,VALID,19.5356,VALID,40,VALID,0.494141,
2008-05-29, 01:30:00,VALID,915.473,VALID,0,VALID,100,VALID,0.0509425,VALID,19.568,VALID,15,VALID,0.665128,
2008-05-29, 01:31:00,VALID,915.469,VALID,0,VALID,100,VALID,0,VALID,19.572,VALID,15,VALID,0.520894,
2008-05-29, 01:32:00,VALID,915.467,VALID,0,VALID,100,VALID,0.0679233,VALID,19.5907,VALID,15,VALID,0.325817,
2008-05-29, 01:33:00,VALID,915.474,VALID,0,VALID,100,VALID,0.0339617,VALID,19.6369,VALID,15,VALID,0.00234375,
2008-05-29, 01:34:00,VALID,915.489,VALID,0,VALID,100,VALID,0,VALID,19.6372,VALID,15,VALID,0,
2008-05-29, 01:35:00,VALID,915.47,VALID,0,VALID,100,VALID,0.0509425,VALID,19.6594,VALID,12,VALID,0.111806,
2008-05-29, 01:36:00,VALID,915.48,VALID,0,VALID,100,VALID,0.0339617,VALID,19.6589,VALID,348,VALID,0.459517,
2008-05-29, 01:37:00,VALID,915.479,VALID,0,VALID,100,VALID,0.0339617,VALID,19.6724,VALID,348,VALID,0,
2008-05-29, 01:38:00,VALID,915.501,VALID,0,VALID,100,VALID,0,VALID,19.6763,VALID,348,VALID,0.0224609,
2008-05-29, 01:39:00,VALID,915.486,VALID,0,VALID,100,VALID,-0.101885,VALID,19.6579,VALID,10,VALID,0.298363,
2008-05-29, 01:40:00,VALID,915.489,VALID,0,VALID,100,VALID,-0.101885,VALID,19.6446,VALID,33,VALID,0.552689,
2008-05-29, 01:41:00,VALID,915.474,VALID,0,VALID,100,VALID,-0.0679233,VALID,19.6516,VALID,33,VALID,0.475991,
2008-05-29, 01:42:00,VALID,915.474,VALID,0,VALID,100,VALID,-0.0849042,VALID,19.6546,VALID,22,VALID,0,
2008-05-29, 01:43:00,VALID,915.469,VALID,0,VALID,100,VALID,-0.0679233,VALID,19.6581,VALID,9,VALID,0,
2008-05-29, 01:44:00,VALID,915.459,VALID,0,VALID,100,VALID,-0.0849042,VALID,19.6676,VALID,9,VALID,0,
2008-05-29, 01:45:00,VALID,915.458,VALID,0,VALID,100,VALID,-0.0509425,VALID,19.6766,VALID,9,VALID,0,
2008-05-29, 01:46:00,VALID,915.446,VALID,0,VALID,100,VALID,-0.0509425,VALID,19.6998,VALID,11,VALID,0,
2008-05-29, 01:47:00,VALID,915.432,VALID,0,VALID,100,VALID,-0.0339617,VALID,19.7258,VALID,18,VALID,0.343568,
2008-05-29, 01:48:00,VALID,915.43,VALID,0,VALID,100,VALID,-0.0509425,VALID,19.7355,VALID,17,VALID,0.426525,
2008-05-29, 01:49:00,VALID,915.439,VALID,0,VALID,100,VALID,-0.0849042,VALID,19.733,VALID,17,VALID,0.00260417,
2008-05-29, 01:50:00,VALID,915.439,VALID,0,VALID,100,VALID,-0.0849042,VALID,19.7068,VALID,24,VALID,0.43843,
2008-05-29, 01:51:00,VALID,915.437,VALID,0,VALID,100,VALID,-0.0849042,VALID,19.703,VALID,36,VALID,1.0015,
2008-05-29, 01:52:00,VALID,915.443,VALID,0,VALID,100,VALID,-0.0509425,VALID,19.6966,VALID,40,VALID,1.04941,
2008-05-29, 01:53:00,VALID,915.446,VALID,0,VALID,100,VALID,-0.0169808,VALID,19.6928,VALID,23,VALID,0.986979,
2008-05-29, 01:54:00,VALID,915.461,VALID,0,VALID,100,VALID,0.0339617,VALID,19.7013,VALID,17,VALID,0.57168,
2008-05-29, 01:55:00,VALID,915.459,VALID,0,VALID,100,VALID,0.0339617,VALID,19.6921,VALID,17,VALID,0.720567,
2008-05-29, 01:56:00,VALID,915.465,VALID,0,VALID,100,VALID,0.0169808,VALID,19.6559,VALID,16,VALID,0.820703,
2008-05-29, 01:57:00,VALID,915.453,VALID,0,VALID,100,VALID,0.0169808,VALID,19.6589,VALID,16,VALID,0.438262,
2008-05-29, 01:58:00,VALID,915.466,VALID,0,VALID,100,VALID,0.0169808,VALID,19.6656,VALID,14,VALID,0.383878,
2008-05-29, 01:59:00,VALID,915.479,VALID,0,VALID,100,VALID,0.0679233,VALID,19.6751,VALID,9,VALID,0.136719,
2008-05-29, 02:00:00,VALID,915.491,VALID,0,VALID,100,VALID,0,VALID,19.6956,VALID,9,VALID,0,
2008-05-29, 02:01:00,VALID,915.512,VALID,0,VALID,100,VALID,0,VALID,19.708,VALID,9,VALID,0,
2008-05-29, 02:02:00,VALID,915.502,VALID,0,VALID,100,VALID,0,VALID,19.7308,VALID,9,VALID,0,
2008-05-29, 02:03:00,VALID,915.489,VALID,0,VALID,100,VALID,0,VALID,19.7472,VALID,9,VALID,0.0093006,
2008-05-29, 02:04:00,VALID,915.479,VALID,0,VALID,100,VALID,-0.0339617,VALID,19.7639,VALID,310,VALID,0.0142045,
2008-05-29, 02:05:00,VALID,915.481,VALID,0,VALID,100,VALID,0,VALID,19.7634,VALID,292,VALID,0,
2008-05-29, 02:06:00,VALID,915.485,VALID,0,VALID,100,VALID,0.0169808,VALID,19.7762,VALID,292,VALID,0,
2008-05-29, 02:07:00,VALID,915.467,VALID,0,VALID,100,VALID,0,VALID,19.7862,VALID,292,VALID,0,
2008-05-29, 02:08:00,VALID,915.461,VALID,0,VALID,100,VALID,0.0339617,VALID,19.7956,VALID,270,VALID,0,
2008-05-29, 02:09:00,VALID,915.461,VALID,0,VALID,100,VALID,0.0169808,VALID,19.7989,VALID,211,VALID,0.0479651,
2008-05-29, 02:10:00,VALID,915.459,VALID,0,VALID,100,VALID,0.0169808,VALID,19.7759,VALID,170,VALID,0,
2008-05-29, 02:11:00,VALID,915.471,VALID,0,VALID,100,VALID,0.0169808,VALID,19.7305,VALID,122,VALID,0.218006,
2008-05-29, 02:12:00,VALID,915.468,VALID,0,VALID,100,VALID,0.0509425,VALID,19.6976,VALID,99,VALID,0.679116,
2008-05-29, 02:13:00,VALID,915.477,VALID,0,VALID,100,VALID,0.0339617,VALID,19.6883,VALID,94,VALID,0.544922,
2008-05-29, 02:14:00,VALID,915.489,VALID,0,VALID,100,VALID,-0.0169808,VALID,19.6783,VALID,88,VALID,0.70419,
2008-05-29, 02:15:00,VALID,915.489,VALID,0,VALID,100,VALID,0.0339617,VALID,19.6621,VALID,116,VALID,0.838405,
2008-05-29, 02:16:00,VALID,915.497,VALID,0,VALID,100,VALID,0.0169808,VALID,19.6591,VALID,129,VALID,0.847747,
2008-05-29, 02:17:00,VALID,915.5,VALID,0,VALID,100,VALID,0.0509425,VALID,19.6459,VALID,120,VALID,0.863867,
2008-05-29, 02:18:00,VALID,915.516,VALID,0,VALID,100,VALID,0,VALID,19.6394,VALID,130,VALID,0.758878,
2008-05-29, 02:19:00,VALID,915.506,VALID,0,VALID,100,VALID,0.0679233,VALID,19.6559,VALID,146,VALID,0.773037,
2008-05-29, 02:20:00,VALID,915.494,VALID,0,VALID,100,VALID,0.0339617,VALID,19.6594,VALID,149,VALID,0.12035,
2008-05-29, 02:21:00,VALID,915.479,VALID,0,VALID,100,VALID,0,VALID,19.6594,VALID,149,VALID,0,
2008-05-29, 02:22:00,VALID,915.477,VALID,0,VALID,100,VALID,0,VALID,19.6696,VALID,162,VALID,0,
2008-05-29, 02:23:00,VALID,915.475,VALID,0,VALID,100,VALID,0,VALID,19.6594,VALID,161,VALID,0,
2008-05-29, 02:24:00,VALID,915.468,VALID,0,VALID,100,VALID,0.0169808,VALID,19.6699,VALID,157,VALID,0,
2008-05-29, 02:25:00,VALID,915.467,VALID,0,VALID,100,VALID,-0.0169808,VALID,19.6599,VALID,148,VALID,0,
2008-05-29, 02:26:00,VALID,915.459,VALID,0,VALID,100,VALID,0,VALID,19.6459,VALID,154,VALID,0,
2008-05-29, 02:27:00,VALID,915.473,VALID,0,VALID,100,VALID,0.0169808,VALID,19.6429,VALID,152,VALID,0,
2008-05-29, 02:28:00,VALID,915.462,VALID,0,VALID,100,VALID,0.0169808,VALID,19.6407,VALID,152,VALID,0,
2008-05-29, 02:29:00,VALID,915.465,VALID,0,VALID,100,VALID,0.0169808,VALID,19.6237,VALID,142,VALID,0,
2008-05-29, 02:30:00,VALID,915.443,VALID,0,VALID,100,VALID,-0.0169808,VALID,19.6174,VALID,129,VALID,0,
2008-05-29, 02:31:00,VALID,915.42,VALID,0,VALID,100,VALID,0,VALID,19.6307,VALID,129,VALID,0,
2008-05-29, 02:32:00,VALID,915.401,VALID,0,VALID,100,VALID,0,VALID,19.6202,VALID,129,VALID,0,
2008-05-29, 02:33:00,VALID,915.386,VALID,0,VALID,100,VALID,0,VALID,19.6214,VALID,129,VALID,0,
2008-05-29, 02:34:00,VALID,915.35,VALID,0,VALID,100,VALID,0,VALID,19.6209,VALID,104,VALID,0,
2008-05-29, 02:35:00,VALID,915.324,VALID,0,VALID,100,VALID,-0.0339617,VALID,19.611,VALID,90,VALID,0,
2008-05-29, 02:36:00,VALID,915.297,VALID,0,VALID,100,VALID,0,VALID,19.598,VALID,90,VALID,0,
2008-05-29, 02:37:00,VALID,915.275,VALID,0,VALID,100,VALID,0,VALID,19.5947,VALID,90,VALID,0,
2008-05-29, 02:38:00,VALID,915.264,VALID,0,VALID,100,VALID,0,VALID,19.5917,VALID,90,VALID,0.345486,
2008-05-29, 02:39:00,VALID,915.228,VALID,0,VALID,100,VALID,-0.0169808,VALID,19.5885,VALID,89,VALID,0.454861,
2008-05-29, 02:40:00,VALID,915.205,VALID,0,VALID,100,VALID,0,VALID,19.5848,VALID,89,VALID,0,
2008-05-29, 02:41:00,VALID,915.185,VALID,0,VALID,100,VALID,-0.0169808,VALID,19.5982,VALID,89,VALID,0,
2008-05-29, 02:42:00,VALID,915.172,VALID,0,VALID,100,VALID,0,VALID,19.6274,VALID,89,VALID,0,
2008-05-29, 02:43:00,VALID,915.16,VALID,0,VALID,100,VALID,0.0169808,VALID,19.6329,VALID,89,VALID,0,
2008-05-29, 02:44:00,VALID,915.174,VALID,0,VALID,100,VALID,0.0339617,VALID,19.6204,VALID,89,VALID,0,
2008-05-29, 02:45:00,VALID,915.133,VALID,0,VALID,100,VALID,0.0339617,VALID,19.604,VALID,89,VALID,0,
2008-05-29, 02:46:00,VALID,915.136,VALID,0,VALID,100,VALID,0,VALID,19.6077,VALID,89,VALID,0,
2008-05-29, 02:47:00,VALID,915.114,VALID,0,VALID,100,VALID,0.0169808,VALID,19.6042,VALID,89,VALID,0,
2008-05-29, 02:48:00,VALID,915.128,VALID,0,VALID,100,VALID,0.0339617,VALID,19.6042,VALID,89,VALID,0,
2008-05-29, 02:49:00,VALID,915.127,VALID,0,VALID,100,VALID,0,VALID,19.6135,VALID,89,VALID,0,
2008-05-29, 02:50:00,VALID,915.125,VALID,0,VALID,100,VALID,0,VALID,19.604,VALID,89,VALID,0,
2008-05-29, 02:51:00,VALID,915.12,VALID,0,VALID,100,VALID,0,VALID,19.6077,VALID,89,VALID,0,
2008-05-29, 02:52:00,VALID,915.127,VALID,0,VALID,100,VALID,0.0339617,VALID,19.5882,VALID,89,VALID,0,
2008-05-29, 02:53:00,VALID,915.142,VALID,0,VALID,100,VALID,-0.0679233,VALID,19.5763,VALID,90,VALID,0,
2008-05-29, 02:54:00,VALID,915.142,VALID,0,VALID,100,VALID,-0.118866,VALID,19.5608,VALID,195,VALID,0,
2008-05-29, 02:55:00,VALID,915.13,VALID,0,VALID,100,VALID,-0.101885,VALID,19.5381,VALID,218,VALID,0.0423329,
2008-05-29, 02:56:00,VALID,915.133,VALID,0,VALID,100,VALID,-0.101885,VALID,19.5221,VALID,236,VALID,0.543501,
2008-05-29, 02:57:00,VALID,915.123,VALID,0,VALID,100,VALID,-0.101885,VALID,19.4924,VALID,254,VALID,0.664912,
2008-05-29, 02:58:00,VALID,915.107,VALID,0,VALID,100,VALID,-0.101885,VALID,19.4924,VALID,247,VALID,0.102865,
2008-05-29, 02:59:00,VALID,915.106,VALID,0,VALID,100,VALID,-0.101885,VALID,19.4792,VALID,248,VALID,0,
2008-05-29, 03:00:00,VALID,915.1,VALID,0,VALID,100,VALID,-0.101885,VALID,19.4797,VALID,251,VALID,0,
2008-05-29, 03:01:00,VALID,915.099,VALID,0,VALID,100,VALID,-0.101885,VALID,19.4657,VALID,241,VALID,0,
2008-05-29, 03:02:00,VALID,915.081,VALID,0,VALID,100,VALID,-0.118866,VALID,19.4502,VALID,146,VALID,0.537847,
2008-05-29, 03:03:00,VALID,915.059,VALID,0,VALID,100,VALID,-0.101885,VALID,19.4143,VALID,168,VALID,0.0333807,
2008-05-29, 03:04:00,VALID,915.062,VALID,0,VALID,100,VALID,-0.101885,VALID,19.4115,VALID,144,VALID,0.874814,
2008-05-29, 03:05:00,VALID,915.066,VALID,0,VALID,100,VALID,-0.0849042,VALID,19.3719,VALID,147,VALID,1.09394,
2008-05-29, 03:06:00,VALID,915.064,VALID,0,VALID,100,VALID,-0.118866,VALID,19.3754,VALID,132,VALID,0.648633,
2008-05-29, 03:07:00,VALID,915.056,VALID,0,VALID,100,VALID,-0.0849042,VALID,19.3823,VALID,136,VALID,1.33117,
2008-05-29, 03:08:00,VALID,915.047,VALID,0,VALID,100,VALID,-0.101885,VALID,19.4243,VALID,162,VALID,0.871548,
2008-05-29, 03:09:00,VALID,915.055,VALID,0,VALID,100,VALID,-0.0849042,VALID,19.4627,VALID,184,VALID,0.807422,
2008-05-29, 03:10:00,VALID,915.035,VALID,0,VALID,100,VALID,-0.0849042,VALID,19.4894,VALID,162,VALID,0.940044,
2008-05-29, 03:11:00,VALID,915.026,VALID,0,VALID,100,VALID,-0.101885,VALID,19.4929,VALID,167,VALID,0.654978,
2008-05-29, 03:12:00,VALID,915.019,VALID,0,VALID,100,VALID,-0.101885,VALID,19.5188,VALID,185,VALID,0.320499,
2008-05-29, 03:13:00,VALID,915.041,VALID,0,VALID,100,VALID,-0.101885,VALID,19.5121,VALID,142,VALID,0.593932,
2008-05-29, 03:14:00,VALID,915.022,VALID,0,VALID,100,VALID,-0.152827,VALID,19.4924,VALID,121,VALID,1.6955,
2008-05-29, 03:15:00,VALID,915.03,VALID,0,VALID,100,VALID,-0.101885,VALID,19.5448,VALID,157,VALID,1.20351,
2008-05-29, 03:16:00,VALID,915.03,VALID,0,VALID,100,VALID,-0.101885,VALID,19.5865,VALID,181,VALID,0.798828,
2008-05-29, 03:17:00,VALID,915.023,VALID,0,VALID,100,VALID,-0.101885,VALID,19.5892,VALID,176,VALID,0.959162,
2008-05-29, 03:18:00,VALID,915.04,VALID,0,VALID,100,VALID,-0.101885,VALID,19.589,VALID,105,VALID,0.64169,
2008-05-29, 03:19:00,VALID,915.031,VALID,0,VALID,100,VALID,-0.0679233,VALID,19.6032,VALID,140,VALID,1.21893,
2008-05-29, 03:20:00,VALID,915.021,VALID,0,VALID,100,VALID,-0.0849042,VALID,19.589,VALID,152,VALID,0.99782,
2008-05-29, 03:21:00,VALID,915.004,VALID,0,VALID,100,VALID,-0.0849042,VALID,19.6062,VALID,147,VALID,1.06267,
2008-05-29, 03:22:00,VALID,914.967,VALID,0,VALID,100,VALID,-0.0849042,VALID,19.6087,VALID,146,VALID,1.31738,
2008-05-29, 03:23:00,VALID,914.949,VALID,0,VALID,100,VALID,-0.0339617,VALID,19.6239,VALID,164,VALID,1.21475,
2008-05-29, 03:24:00,VALID,914.924,VALID,0,VALID,99.9598,VALID,0,VALID,19.6556,VALID,161,VALID,1.58368,
2008-05-29, 03:25:00,VALID,914.912,VALID,0,VALID,99.6709,VALID,0.0509425,VALID,19.6719,VALID,135,VALID,1.75594,
2008-05-29, 03:26:00,VALID,914.884,VALID,0,VALID,99.3568,VALID,0.0339617,VALID,19.711,VALID,141,VALID,1.67374,
2008-05-29, 03:27:00,VALID,914.874,VALID,0,VALID,99.0987,VALID,0,VALID,19.7535,VALID,148,VALID,1.43733,
2008-05-29, 03:28:00,VALID,914.886,VALID,0,VALID,98.8482,VALID,0,VALID,19.7857,VALID,138,VALID,1.58612,
2008-05-29, 03:29:00,VALID,914.892,VALID,0,VALID,98.468,VALID,-0.0169808,VALID,19.8281,VALID,147,VALID,2.25226,
2008-05-29, 03:30:00,VALID,914.888,VALID,0,VALID,98.0661,VALID,0,VALID,19.867,VALID,150,VALID,2.0282,
2008-05-29, 03:31:00,VALID,914.867,VALID,0,VALID,97.6758,VALID,0,VALID,19.9254,VALID,170,VALID,1.64099,
2008-05-29, 03:32:00,VALID,914.852,VALID,0,VALID,97.1913,VALID,0,VALID,19.9768,VALID,152,VALID,2.0973,
2008-05-29, 03:33:00,VALID,914.836,VALID,0,VALID,96.6852,VALID,0,VALID,20.029,VALID,145,VALID,2.32778,
2008-05-29, 03:34:00,VALID,914.809,VALID,0,VALID,96.3609,VALID,0.0169808,VALID,20.0809,VALID,144,VALID,2.09375,
2008-05-29, 03:35:00,VALID,914.794,VALID,0,VALID,96.1053,VALID,0,VALID,20.1201,VALID,148,VALID,1.92055,
2008-05-29, 03:36:00,VALID,914.764,VALID,0,VALID,95.9794,VALID,0,VALID,20.1561,VALID,146,VALID,1.59956,
2008-05-29, 03:37:00,VALID,914.741,VALID,0,VALID,95.8256,VALID,0,VALID,20.1625,VALID,149,VALID,1.51829,
2008-05-29, 03:38:00,VALID,914.713,VALID,0,VALID,95.7289,VALID,-0.0509425,VALID,20.1693,VALID,139,VALID,1.754,
2008-05-29, 03:39:00,VALID,914.71,VALID,0,VALID,95.6158,VALID,-0.101885,VALID,20.1798,VALID,148,VALID,1.60194,
2008-05-29, 03:40:00,VALID,914.697,VALID,0,VALID,95.5089,VALID,-0.101885,VALID,20.2028,VALID,156,VALID,1.35605,
2008-05-29, 03:41:00,VALID,914.692,VALID,0,VALID,95.3157,VALID,-0.101885,VALID,20.2122,VALID,152,VALID,1.69851,
2008-05-29, 03:42:00,VALID,914.7,VALID,0,VALID,95.1338,VALID,-0.0849042,VALID,20.2382,VALID,123,VALID,1.59847,
2008-05-29, 03:43:00,VALID,914.685,VALID,0,VALID,95.0232,VALID,-0.101885,VALID,20.2587,VALID,119,VALID,0.831076,
2008-05-29, 03:44:00,VALID,914.681,VALID,0,VALID,94.9698,VALID,-0.101885,VALID,20.2549,VALID,148,VALID,0.758557,